[[{"header":{"parameterUnit":"m.s-1","parameterCategory":2,"la1":30.2991,"la2":30.254,"lo1":-89.0895,"lo2":-89.0444,"dy":0.0017,"dx":0.0017,"nx":28,"ny":28,"refTime":"2024-06-16T09:00:00:Z","depth":"0","parameterNumber":2,"parameterNumberName":"U-component_of_CURRENTS"},"data":[0,0,0,0,0,0,0,0,0,0,0,0,0,0,0,0,0,0,0,0,0,0,0,0,0,0,0,0,0,0,0,0,0,0,0,0,0,0,0,0,0,0,0,0,0,0,0,0,0,0,0,0,0,0,0,0,0,0,-0.235,-0.235,0,-0.2355,-0.2355,-0.2355,-0.2372,-0.2372,-0.2373,-0.2373,-0.2376,-0.2376,-0.2376,0,0,0,0,0,0,0,0,0,0,0,0,0,-0.2281,-0.2283,-0.235,-0.235,-0.235,-0.2355,-0.2355,-0.2355,-0.2372,-0.2372,-0.2373,-0.2373,-0.2376,-0.2376,-0.2376,0,0,0,0,0,0,0,0,0,0,0,0,0,-0.2302,-0.2283,-0.235,-0.2359,-0.2359,-0.2355,-0.2355,-0.2355,-0.2372,-0.2372,-0.2373,-0.2373,-0.2376,-0.2376,-0.2376,-0.2365,0,0,-0.2375,-0.2375,0,0,0,0,0,0,0,0,-0.2301,-0.2305,-0.2357,-0.2358,-0.2359,-0.2363,-0.2332,-0.2358,-0.2372,-0.2368,-0.2373,-0.2373,-0.2371,-0.2371,-0.2372,-0.2365,-0.2366,-0.2375,-0.2375,-0.2375,-0.2375,0,0,0,0,0,0,0,-0.23,-0.2304,-0.2353,-0.2357,-0.2358,-0.2336,-0.234,-0.2337,-0.2368,-0.2368,-0.2369,-0.2368,-0.2371,-0.2372,-0.2372,-0.2366,-0.2375,-0.2375,-0.2375,-0.2374,-0.2357,-0.2357,0,0,0,0,0,0,-0.2301,-0.2303,-0.2353,-0.2353,-0.2329,-0.2337,-0.2342,-0.2362,-0.2368,-0.2369,-0.2368,-0.2369,-0.2373,-0.2373,-0.2372,-0.2382,-0.2375,-0.2374,-0.2374,-0.2358,-0.2357,-0.2357,0,0,0,0,0,0,-0.23,-0.2306,-0.2353,-0.2326,-0.233,-0.2339,-0.236,-0.2362,-0.2369,-0.2367,-0.2368,-0.2374,-0.2373,-0.2373,-0.2375,-0.2381,-0.2374,-0.2374,-0.2358,-0.2357,-0.2357,-0.2386,0,0,0,0,0,0,-0.2298,-0.2306,-0.2317,-0.2327,-0.2332,-0.2364,-0.2359,-0.2361,-0.2367,-0.2368,-0.2373,-0.2373,-0.2373,-0.2376,-0.2375,-0.2381,-0.2374,-0.2358,-0.2358,-0.2357,-0.2386,-0.2387,-0.2388,0,0,0,0,0,-0.2296,-0.2309,-0.2318,-0.2324,-0.2349,-0.2365,-0.2366,-0.2372,-0.2366,-0.2378,-0.2374,-0.2373,-0.2372,-0.2376,-0.2375,-0.238,-0.2359,-0.2358,-0.2357,-0.2385,-0.2387,-0.2388,0,0,0,0,0,0,-0.2277,-0.2312,-0.2323,-0.2345,-0.236,-0.2368,-0.237,-0.2373,-0.2378,-0.237,-0.2373,-0.2374,-0.2376,-0.237,-0.2374,-0.2371,-0.2363,-0.2362,-0.2385,-0.2386,-0.2387,-0.2355,-0.2374,0,0,0,0,0,-0.228,-0.2302,-0.233,-0.2343,-0.2354,-0.2362,-0.2365,-0.2369,-0.2373,-0.2376,-0.2386,-0.2379,-0.2371,-0.2373,-0.2368,-0.237,-0.2319,-0.2369,-0.2371,-0.2372,-0.2343,-0.2264,-0.2255,-0.2355,-0.2355,-0.2355,0,0,-0.2271,-0.2293,-0.2303,-0.234,-0.2349,-0.2361,-0.2366,-0.2371,-0.2375,-0.2373,-0.2386,-0.2385,-0.237,-0.2373,-0.2373,-0.2372,-0.2322,-0.2371,-0.2372,-0.2342,-0.2262,-0.2252,-0.2243,-0.2354,-0.2354,-0.2355,0,0,-0.226,-0.2291,-0.2307,-0.2322,-0.2339,-0.2351,-0.2356,-0.2376,-0.2384,-0.2398,-0.2386,-0.2378,-0.2396,-0.2374,-0.2365,-0.2362,-0.2328,-0.2377,-0.2361,-0.2286,-0.2277,-0.2268,-0.2211,-0.2197,-0.2381,-0.2381,-0.2381,0,-0.2249,-0.2272,-0.2309,-0.2322,-0.2324,-0.235,-0.2352,-0.2367,-0.2384,-0.2374,-0.2407,-0.2376,-0.2386,-0.2338,-0.2355,-0.2363,-0.2322,-0.2364,-0.2286,-0.2276,-0.2266,-0.221,-0.2194,-0.2382,-0.2382,-0.2382,-0.2382,0,-0.2242,-0.2263,-0.2269,-0.2302,-0.2315,-0.2317,-0.2344,-0.2357,-0.2377,-0.2379,-0.2358,-0.2363,-0.2334,-0.2353,-0.2365,-0.2301,-0.2296,-0.2296,-0.2282,-0.2258,-0.2201,-0.2183,-0.2384,-0.2384,-0.2383,-0.2383,0,0,-0.2202,-0.2258,-0.2255,-0.2267,-0.2297,-0.2305,-0.2315,-0.232,-0.2307,-0.2331,-0.2302,-0.2305,-0.2295,-0.228,-0.2283,-0.2242,-0.2172,-0.2253,-0.2249,-0.2195,-0.2014,-0.1997,-0.1976,-0.2163,-0.216,-0.2157,-0.201,0,-0.2181,-0.2206,-0.2232,-0.2238,-0.2254,-0.2273,-0.2283,-0.2283,-0.2297,-0.2287,-0.2263,-0.2248,-0.2271,-0.2265,-0.2219,-0.2185,-0.2124,-0.2212,-0.2045,-0.204,-0.2025,-0.1954,-0.193,-0.1795,-0.1993,-0.199,-0.1987,0,-0.2149,-0.2177,-0.2189,-0.2216,-0.2221,-0.2227,-0.2223,-0.2232,-0.2217,-0.2225,-0.2183,-0.2177,-0.2117,-0.2153,-0.2024,-0.2083,-0.2038,-0.2012,-0.2005,-0.1956,-0.1988,-0.1846,-0.1755,-0.1765,-0.196,-0.1962,-0.1964,0,-0.2101,-0.2133,-0.2144,-0.2151,-0.2194,-0.2189,-0.2204,-0.2201,-0.2187,-0.2173,-0.2153,-0.2085,-0.2051,-0.1973,-0.1937,-0.1972,-0.18,-0.1832,-0.1755,-0.1755,-0.168,-0.1678,-0.1568,-0.1702,-0.1702,-0.1702,-0.1703,0,-0.2068,-0.2068,-0.2124,-0.2132,-0.2121,-0.2161,-0.2132,-0.2149,-0.2132,-0.2093,-0.2106,-0.2052,-0.2005,-0.1921,-0.1885,-0.1759,-0.1738,-0.1713,-0.1696,-0.1694,-0.1695,-0.1658,-0.168,-0.1697,-0.1698,-0.1699,-0.17,0,-0.2009,-0.2054,-0.2059,-0.21,-0.2104,-0.2094,-0.2088,-0.2052,-0.2076,-0.2021,-0.2012,-0.1989,-0.1894,-0.1833,-0.1717,-0.1679,-0.1553,-0.154,-0.1557,-0.1544,-0.1492,-0.1518,-0.1337,-0.13,-0.141,-0.1408,-0.1407,0,-0.198,-0.1986,-0.2016,-0.199,-0.2004,-0.1994,-0.1967,-0.2011,-0.1974,-0.1973,-0.1926,-0.186,-0.1791,-0.1626,-0.1551,-0.1433,-0.1457,-0.1356,-0.1406,-0.1446,-0.1462,-0.1483,-0.1468,-0.1327,-0.1325,-0.1323,-0.1322,0,-0.19,-0.1913,-0.1905,-0.1867,-0.1843,-0.1821,-0.1804,-0.179,-0.1828,-0.1811,-0.1785,-0.1749,-0.1628,-0.151,-0.1384,-0.1324,-0.1348,-0.132,-0.1333,-0.1344,-0.1381,-0.1354,-0.1495,-0.1308,-0.1309,-0.131,-0.1311,-0.1312,-0.1801,-0.1759,-0.1734,-0.1687,-0.1658,-0.1626,-0.1594,-0.1607,-0.1589,-0.1578,-0.1623,-0.1559,-0.1501,-0.1323,-0.1266,-0.1194,-0.1205,-0.1183,-0.1197,-0.1206,-0.1199,-0.1321,-0.1143,-0.1143,-0.1144,-0.1144,-0.1144,0,-0.1635,-0.1596,-0.1538,-0.1477,-0.1396,-0.1455,-0.144,-0.1413,-0.14,-0.1418,-0.1414,-0.1348,-0.1263,-0.1221,-0.1152,-0.1103,-0.1087,-0.1089,-0.1118,-0.1096,-0.1165,-0.1196,-0.1055,-0.1055,-0.1055,-0.1055,-0.1055,-0.1055,-0.1535,-0.1416,-0.139,-0.1221,-0.1189,-0.1098,-0.1097,-0.1132,-0.1137,-0.1104,-0.108,-0.1067,-0.1065,-0.1173,-0.1144,-0.1099,-0.1079,-0.1042,-0.1036,-0.1128,-0.1139,-0.115,-0.1184,-0.1042,-0.1042,-0.0954,-0.0954,-0.0953]},{"header":{"parameterUnit":"m.s-1","parameterCategory":2,"la1":30.2991,"la2":30.254,"lo1":-89.0895,"lo2":-89.0444,"dy":0.0017,"dx":0.0017,"nx":28,"ny":28,"refTime":"2024-06-16T09:00:00:Z","depth":"0","parameterNumber":3,"parameterNumberName":"V-component_of_CURRENTS"},"data":[0,0,0,0,0,0,0,0,0,0,0,0,0,0,0,0,0,0,0,0,0,0,0,0,0,0,0,0,0,0,0,0,0,0,0,0,0,0,0,0,0,0,0,0,0,0,0,0,0,0,0,0,0,0,0,0,0,0,-0.0003,-0.0002,0,0.0082,0.0083,0.0084,0.0136,0.0137,0.0137,0.0137,0.0249,0.0252,0.0255,0,0,0,0,0,0,0,0,0,0,0,0,0,-0.0102,-0.01,-0.0003,-0.0002,-0.0001,0.0082,0.0083,0.0084,0.0136,0.0137,0.0137,0.0137,0.0248,0.0252,0.0255,0,0,0,0,0,0,0,0,0,0,0,0,0,-0.0042,-0.01,-0.0003,0.0035,0.0039,0.0082,0.0083,0.0085,0.0136,0.0137,0.0137,0.0138,0.0247,0.0251,0.0255,0.0272,0,0,0.0268,0.027,0,0,0,0,0,0,0,0,-0.0046,-0.0039,0.0028,0.0033,0.0037,0.0099,0.009,0.0149,0.0136,0.0099,0.0137,0.0138,0.0201,0.0209,0.0224,0.0277,0.0282,0.0268,0.0271,0.0272,0.0274,0,0,0,0,0,0,0,-0.005,-0.0042,0.003,0.0029,0.0035,0.0055,0.0063,0.0101,0.0147,0.0103,0.0107,0.0116,0.0204,0.022,0.0227,0.0284,0.0268,0.0272,0.0274,0.0276,0.0379,0.038,0,0,0,0,0,0,-0.0061,-0.0046,0.0028,0.0033,-0.0004,0.0056,0.0066,0.0079,0.0146,0.0157,0.0116,0.0118,0.0212,0.0222,0.0231,0.0278,0.0272,0.0276,0.0279,0.0379,0.0379,0.038,0,0,0,0,0,0,-0.0064,-0.0055,0.0024,-0.0005,0.0007,0.0057,0.0071,0.008,0.0096,0.0156,0.0167,0.0122,0.0213,0.0225,0.026,0.0282,0.0278,0.0282,0.0379,0.0379,0.038,0.0356,0,0,0,0,0,0,-0.0067,-0.0057,-0.0056,-0.0005,0.0008,0.0046,0.0071,0.0082,0.0101,0.0105,0.0165,0.0176,0.0214,0.0254,0.0264,0.0287,0.0285,0.0378,0.0379,0.0379,0.0357,0.0356,0.0355,0,0,0,0,0,-0.0071,-0.0081,-0.0056,-0.0047,0.0009,0.0046,0.0054,0.0091,0.0101,0.0106,0.0144,0.0174,0.0266,0.0257,0.0269,0.0294,0.0378,0.0379,0.0379,0.0357,0.0356,0.0355,0,0,0,0,0,0,-0.0127,-0.0074,-0.0047,-0.004,0.0002,0.0054,0.0054,0.0085,0.0119,0.0117,0.0174,0.0188,0.0229,0.0258,0.0247,0.0324,0.0329,0.0332,0.0308,0.0307,0.0307,0.0309,0.0288,0,0,0,0,0,-0.0137,-0.0128,-0.0069,-0.0063,-0.0048,0.0004,0.002,0.0049,0.0088,0.0103,0.0151,0.0197,0.0242,0.0268,0.0309,0.0346,0.0394,0.0371,0.037,0.037,0.0379,0.0473,0.0482,0.0382,0.0382,0.0382,0,0,-0.0154,-0.0128,-0.012,-0.0074,-0.0044,-0.0017,0.0014,0.0033,0.0068,0.0109,0.0158,0.0193,0.0249,0.0295,0.0317,0.0322,0.0418,0.037,0.0369,0.038,0.0475,0.0485,0.0494,0.0382,0.0382,0.0382,0,0,-0.0189,-0.0164,-0.0164,-0.0133,-0.0091,-0.005,-0.0046,0.0012,0.0047,0.0094,0.0136,0.0181,0.0247,0.03,0.0332,0.035,0.0408,0.0361,0.0367,0.0458,0.0468,0.0477,0.0527,0.0541,0.0365,0.0365,0.0365,0,-0.0213,-0.0196,-0.016,-0.015,-0.0122,-0.0066,-0.0047,-0.0004,0.0064,0.0099,0.0104,0.0218,0.0256,0.0333,0.0338,0.0352,0.0399,0.0365,0.0459,0.0469,0.0479,0.0529,0.0545,0.0364,0.0364,0.0364,0.0364,0,-0.0236,-0.022,-0.0225,-0.018,-0.0146,-0.013,-0.0056,-0.0013,0.0033,0.0085,0.0162,0.022,0.029,0.031,0.033,0.0418,0.0426,0.0444,0.0462,0.0488,0.0538,0.0555,0.0362,0.0363,0.0363,0.0363,0,0,-0.0288,-0.0246,-0.0246,-0.0225,-0.016,-0.0134,-0.0071,0.0008,0.0053,0.0121,0.0192,0.0265,0.0294,0.0333,0.0372,0.0448,0.0542,0.0471,0.0476,0.0522,0.0724,0.064,0.065,0.0584,0.0587,0.059,0.0724,0,-0.0311,-0.0304,-0.0264,-0.0235,-0.0218,-0.0139,-0.0083,-0.0006,0.0067,0.0146,0.0227,0.0297,0.0305,0.0342,0.0417,0.0525,0.0589,0.0502,0.0692,0.0697,0.0621,0.0668,0.0689,0.0803,0.074,0.0743,0.0745,0,-0.0339,-0.0325,-0.031,-0.0247,-0.0232,-0.0206,-0.0099,-0.0035,0.0087,0.0146,0.0232,0.0296,0.0415,0.0415,0.0609,0.0557,0.0631,0.0704,0.0712,0.0657,0.0645,0.0773,0.0837,0.0939,0.0771,0.0769,0.0767,0,-0.0389,-0.0353,-0.0342,-0.0324,-0.0246,-0.0217,-0.0163,-0.0049,0.0032,0.0153,0.0229,0.0345,0.0448,0.056,0.0685,0.0669,0.0891,0.0893,0.0881,0.0875,0.0942,0.0935,0.1132,0.1023,0.1023,0.1022,0.1022,0,-0.0427,-0.0416,-0.0374,-0.0371,-0.0335,-0.0267,-0.02,-0.0123,0.0008,0.0129,0.0219,0.0345,0.0499,0.0635,0.0715,0.0844,0.0919,0.0894,0.0916,0.0927,0.0918,0.1046,0.1077,0.1027,0.1026,0.1025,0.1024,0,-0.048,-0.0455,-0.0437,-0.0382,-0.0362,-0.0336,-0.0217,-0.0139,-0.0029,0.0142,0.0195,0.039,0.056,0.0669,0.0872,0.0898,0.1059,0.1027,0.0995,0.1009,0.1048,0.1075,0.124,0.1294,0.1048,0.1047,0.1046,0,-0.0505,-0.0507,-0.0461,-0.0427,-0.0407,-0.0351,-0.0277,-0.0167,-0.0061,0.0189,0.0288,0.0473,0.061,0.0813,0.09,0.0995,0.1066,0.1052,0.1012,0.1063,0.1113,0.1112,0.1146,0.1102,0.1101,0.1101,0.11,0,-0.053,-0.0519,-0.0497,-0.0446,-0.0389,-0.0299,-0.0199,-0.0132,0.0059,0.0182,0.0402,0.0514,0.0708,0.0836,0.0909,0.0965,0.1106,0.1041,0.1159,0.1214,0.1173,0.1229,0.0968,0.1097,0.1098,0.1098,0.1098,0.1098,-0.0532,-0.052,-0.048,-0.0424,-0.0355,-0.023,-0.0155,-0.0047,0.0094,0.0276,0.0404,0.0542,0.078,0.0883,0.0955,0.1111,0.1084,0.116,0.1203,0.1207,0.1217,0.0891,0.0987,0.0987,0.0987,0.0986,0.0986,0,-0.048,-0.0461,-0.0431,-0.0345,-0.0262,-0.0221,-0.0065,0.0016,0.0145,0.0224,0.0337,0.0603,0.079,0.0996,0.1237,0.1308,0.134,0.135,0.143,0.1469,0.1271,0.123,0.1305,0.1305,0.1304,0.1304,0.1304,0.1304,-0.0442,-0.0389,-0.0376,-0.0251,-0.0196,-0.006,0.0027,0.0109,0.0159,0.0258,0.0358,0.0456,0.0866,0.1316,0.1577,0.1575,0.1692,0.1621,0.1686,0.1619,0.1607,0.1596,0.1569,0.1713,0.1714,0.1898,0.19,0.1901]}],[{"header":{"parameterUnit":"m.s-1","parameterCategory":2,"la1":30.2991,"la2":30.254,"lo1":-89.0895,"lo2":-89.0444,"dy":0.0017,"dx":0.0017,"nx":28,"ny":28,"refTime":"2024-06-16T09:00:00:Z","depth":"2","parameterNumber":2,"parameterNumberName":"U-component_of_CURRENTS"},"data":[0,0,0,0,0,0,0,0,0,0,0,0,0,0,0,0,0,0,0,0,0,0,0,0,0,0,0,0,0,0,0,0,0,0,0,0,0,0,0,0,0,0,0,0,0,0,0,0,0,0,0,0,0,0,0,0,0,0,-0.2266,-0.2266,0,-0.2266,-0.2266,-0.2266,-0.2294,-0.2294,-0.2295,-0.2295,-0.2298,-0.2298,-0.2297,0,0,0,0,0,0,0,0,0,0,0,0,0,-0.2195,-0.2197,-0.2266,-0.2266,-0.2266,-0.2266,-0.2266,-0.2266,-0.2293,-0.2294,-0.2295,-0.2295,-0.2298,-0.2298,-0.2297,0,0,0,0,0,0,0,0,0,0,0,0,0,-0.2215,-0.2197,-0.2266,-0.2278,-0.2279,-0.2266,-0.2266,-0.2267,-0.2293,-0.2294,-0.2295,-0.2296,-0.2299,-0.2298,-0.2297,-0.2276,0,0,-0.2295,-0.2295,0,0,0,0,0,0,0,0,-0.2214,-0.2218,-0.2276,-0.2277,-0.2278,-0.2279,-0.2242,-0.2269,-0.2293,-0.2289,-0.2295,-0.2296,-0.229,-0.2291,-0.2291,-0.2276,-0.2276,-0.2295,-0.2295,-0.2294,-0.2294,0,0,0,0,0,0,0,-0.2213,-0.2217,-0.2268,-0.2276,-0.2277,-0.2251,-0.2256,-0.2247,-0.2286,-0.229,-0.2291,-0.2289,-0.2291,-0.2291,-0.2291,-0.2276,-0.2295,-0.2294,-0.2294,-0.2294,-0.2273,-0.2273,0,0,0,0,0,0,-0.2214,-0.2217,-0.2267,-0.2267,-0.2246,-0.2252,-0.2257,-0.2279,-0.2286,-0.2288,-0.2288,-0.229,-0.2292,-0.2292,-0.2291,-0.2305,-0.2294,-0.2294,-0.2293,-0.2273,-0.2273,-0.2273,0,0,0,0,0,0,-0.2213,-0.2219,-0.2267,-0.2239,-0.2243,-0.2253,-0.2277,-0.2279,-0.229,-0.2285,-0.2287,-0.2298,-0.2293,-0.2292,-0.2293,-0.2303,-0.2293,-0.2293,-0.2273,-0.2273,-0.2273,-0.2306,0,0,0,0,0,0,-0.2211,-0.222,-0.2233,-0.224,-0.2245,-0.2277,-0.2276,-0.2278,-0.2286,-0.2289,-0.2294,-0.2294,-0.2293,-0.2294,-0.2293,-0.2302,-0.2292,-0.2274,-0.2273,-0.2273,-0.2306,-0.2307,-0.2309,0,0,0,0,0,-0.2209,-0.2223,-0.2235,-0.224,-0.2266,-0.2277,-0.2278,-0.2286,-0.2285,-0.2298,-0.2295,-0.2295,-0.2291,-0.2294,-0.2292,-0.2302,-0.2274,-0.2273,-0.2273,-0.2305,-0.2307,-0.2309,0,0,0,0,0,0,-0.2193,-0.2227,-0.224,-0.2263,-0.2278,-0.2282,-0.2283,-0.2289,-0.2295,-0.229,-0.2292,-0.2293,-0.2297,-0.2289,-0.2292,-0.2293,-0.2282,-0.2282,-0.2307,-0.2309,-0.2311,-0.2279,-0.2292,0,0,0,0,0,-0.2197,-0.2219,-0.2245,-0.226,-0.227,-0.2278,-0.2281,-0.2285,-0.2289,-0.2293,-0.2303,-0.2298,-0.229,-0.2293,-0.2287,-0.2287,-0.2235,-0.2291,-0.2292,-0.2294,-0.2266,-0.2188,-0.218,-0.2272,-0.2272,-0.2272,0,0,-0.2189,-0.221,-0.2221,-0.2257,-0.2265,-0.2275,-0.2283,-0.2287,-0.2292,-0.2289,-0.2305,-0.2304,-0.229,-0.2294,-0.2295,-0.2292,-0.2246,-0.2294,-0.2295,-0.2265,-0.2187,-0.2177,-0.2169,-0.2272,-0.2272,-0.2272,0,0,-0.2177,-0.2212,-0.2226,-0.2241,-0.2256,-0.2266,-0.2271,-0.229,-0.2302,-0.2315,-0.2306,-0.2301,-0.2318,-0.2298,-0.2289,-0.229,-0.2254,-0.2306,-0.2294,-0.2221,-0.2212,-0.2203,-0.2146,-0.2132,-0.2311,-0.2311,-0.2311,0,-0.2167,-0.2192,-0.2227,-0.2239,-0.2241,-0.2265,-0.2267,-0.2283,-0.2299,-0.2292,-0.2326,-0.2299,-0.2309,-0.2266,-0.2286,-0.2292,-0.225,-0.2293,-0.2221,-0.2211,-0.2202,-0.2145,-0.2129,-0.2312,-0.2312,-0.2312,-0.2312,0,-0.2158,-0.2182,-0.2187,-0.2219,-0.2231,-0.2232,-0.2259,-0.2273,-0.2295,-0.2298,-0.2283,-0.2289,-0.2264,-0.2284,-0.2297,-0.2238,-0.2231,-0.223,-0.2215,-0.2194,-0.2137,-0.2119,-0.2315,-0.2314,-0.2314,-0.2313,0,0,-0.2119,-0.2175,-0.2173,-0.2186,-0.2215,-0.2221,-0.2232,-0.2237,-0.2228,-0.2254,-0.223,-0.2237,-0.223,-0.2216,-0.2222,-0.2183,-0.2117,-0.2193,-0.2189,-0.2134,-0.1961,-0.1937,-0.1915,-0.2108,-0.2105,-0.2103,-0.1955,0,-0.2098,-0.2121,-0.2147,-0.2155,-0.217,-0.2191,-0.2202,-0.2204,-0.2219,-0.2213,-0.2193,-0.2182,-0.2206,-0.2204,-0.2161,-0.2129,-0.207,-0.2157,-0.1989,-0.1983,-0.1961,-0.1893,-0.1787,-0.1643,-0.1938,-0.1935,-0.1932,0,-0.2067,-0.2092,-0.2105,-0.2135,-0.214,-0.2148,-0.2146,-0.2157,-0.2145,-0.2156,-0.2118,-0.2114,-0.2059,-0.2096,-0.1971,-0.2029,-0.1986,-0.196,-0.1953,-0.1896,-0.1925,-0.1706,-0.16,-0.1903,-0.1905,-0.1908,-0.1909,0,-0.2019,-0.2051,-0.2062,-0.2071,-0.2115,-0.2114,-0.2129,-0.213,-0.2118,-0.2108,-0.2089,-0.2026,-0.1995,-0.1919,-0.1885,-0.192,-0.175,-0.1783,-0.17,-0.1699,-0.1553,-0.1544,-0.1655,-0.1656,-0.1656,-0.1656,-0.1657,0,-0.1987,-0.1989,-0.2045,-0.2054,-0.2047,-0.2088,-0.2064,-0.2083,-0.2068,-0.2021,-0.2045,-0.1983,-0.195,-0.1867,-0.1832,-0.1705,-0.1688,-0.1659,-0.164,-0.1567,-0.1561,-0.1744,-0.1756,-0.1651,-0.1652,-0.1653,-0.1654,0,-0.1932,-0.1976,-0.1983,-0.2025,-0.2032,-0.2025,-0.2024,-0.199,-0.2016,-0.195,-0.1941,-0.1918,-0.1822,-0.1776,-0.1663,-0.1624,-0.1525,-0.1483,-0.1416,-0.1392,-0.1537,-0.1553,-0.1351,-0.1349,-0.1346,-0.1345,-0.1343,0,-0.1903,-0.1912,-0.1943,-0.192,-0.1936,-0.1931,-0.1907,-0.1953,-0.1912,-0.1886,-0.1832,-0.1768,-0.1675,-0.1524,-0.1458,-0.1347,-0.1426,-0.1204,-0.1243,-0.1493,-0.1496,-0.1516,-0.1534,-0.1067,-0.1064,-0.1061,-0.1058,0,-0.1829,-0.1845,-0.1838,-0.1802,-0.1782,-0.1761,-0.1743,-0.1717,-0.1739,-0.1701,-0.1625,-0.1562,-0.1454,-0.1299,-0.121,-0.1146,-0.1222,-0.114,-0.1353,-0.1187,-0.122,-0.1227,-0.1254,-0.1032,-0.1034,-0.1036,-0.1038,-0.1039,-0.1736,-0.1697,-0.1674,-0.163,-0.1601,-0.1555,-0.1496,-0.1498,-0.1445,-0.1336,-0.1384,-0.1236,-0.1228,-0.1,-0.096,-0.0943,-0.1022,-0.0983,-0.0993,-0.1007,-0.1026,-0.1056,-0.084,-0.0842,-0.0843,-0.0844,-0.0845,0,-0.1575,-0.1543,-0.1486,-0.1419,-0.1321,-0.1383,-0.1331,-0.1259,-0.1175,-0.1098,-0.1018,-0.0831,-0.076,-0.0765,-0.0691,-0.0706,-0.0721,-0.0695,-0.071,-0.0735,-0.0757,-0.0767,-0.0511,-0.051,-0.0509,-0.0509,0,0,-0.148,-0.1364,-0.1336,-0.1146,-0.1098,-0.0981,-0.0937,-0.0872,-0.0813,-0.0626,-0.0515,-0.0555,-0.0639,-0.0514,-0.0549,-0.0507,-0.0608,-0.0487,-0.0746,-0.0779,-0.08,-0.0907,-0.0948,0,0,0,0,0]},{"header":{"parameterUnit":"m.s-1","parameterCategory":2,"la1":30.2991,"la2":30.254,"lo1":-89.0895,"lo2":-89.0444,"dy":0.0017,"dx":0.0017,"nx":28,"ny":28,"refTime":"2024-06-16T09:00:00:Z","depth":"2","parameterNumber":3,"parameterNumberName":"V-component_of_CURRENTS"},"data":[0,0,0,0,0,0,0,0,0,0,0,0,0,0,0,0,0,0,0,0,0,0,0,0,0,0,0,0,0,0,0,0,0,0,0,0,0,0,0,0,0,0,0,0,0,0,0,0,0,0,0,0,0,0,0,0,0,0,-0.008,-0.008,0,-0.0001,-0.0,0.0001,0.0054,0.0055,0.0055,0.0056,0.0162,0.0164,0.0167,0,0,0,0,0,0,0,0,0,0,0,0,0,-0.0175,-0.0173,-0.0081,-0.0079,-0.0078,-0.0001,-0.0,0.0001,0.0054,0.0055,0.0055,0.0056,0.0161,0.0164,0.0167,0,0,0,0,0,0,0,0,0,0,0,0,0,-0.0119,-0.0173,-0.0081,-0.0042,-0.0038,-0.0001,-0.0,0.0001,0.0054,0.0055,0.0056,0.0056,0.016,0.0164,0.0167,0.0177,0,0,0.0179,0.018,0,0,0,0,0,0,0,0,-0.0122,-0.0116,-0.0049,-0.0045,-0.004,0.0018,0.0006,0.0061,0.0054,0.0019,0.0056,0.0056,0.0116,0.0124,0.0136,0.0182,0.0186,0.0179,0.0181,0.0183,0.0184,0,0,0,0,0,0,0,-0.0126,-0.0119,-0.005,-0.0048,-0.0042,-0.0025,-0.0016,0.0016,0.0063,0.0022,0.0026,0.0036,0.0119,0.0132,0.0139,0.0188,0.0179,0.0182,0.0184,0.0186,0.0281,0.0282,0,0,0,0,0,0,-0.0136,-0.0122,-0.0052,-0.0047,-0.0079,-0.0024,-0.0014,-0.0002,0.0062,0.0072,0.0035,0.0038,0.0126,0.0134,0.0143,0.0189,0.0183,0.0186,0.0188,0.0281,0.0282,0.0282,0,0,0,0,0,0,-0.0138,-0.013,-0.0055,-0.0083,-0.0072,-0.0023,-0.0009,-0.0,0.0016,0.0072,0.0083,0.0043,0.0126,0.0138,0.017,0.0192,0.0188,0.0191,0.0281,0.0281,0.0282,0.0261,0,0,0,0,0,0,-0.0141,-0.0132,-0.013,-0.0083,-0.0071,-0.0036,-0.0009,0.0001,0.0022,0.0026,0.0083,0.0093,0.0128,0.0164,0.0173,0.0197,0.0194,0.028,0.0281,0.0282,0.0261,0.026,0.026,0,0,0,0,0,-0.0145,-0.0155,-0.013,-0.0122,-0.0068,-0.0036,-0.0029,0.0008,0.0021,0.0026,0.0062,0.0091,0.0176,0.0167,0.0178,0.0203,0.028,0.0281,0.0282,0.0261,0.0261,0.026,0,0,0,0,0,0,-0.0199,-0.0149,-0.0121,-0.0115,-0.0075,-0.0027,-0.0027,0.0004,0.0035,0.0036,0.0089,0.0102,0.0142,0.0168,0.0157,0.0232,0.0236,0.0239,0.0216,0.0216,0.0216,0.0217,0.0197,0,0,0,0,0,-0.0208,-0.02,-0.0144,-0.0138,-0.0124,-0.0074,-0.0059,-0.003,0.0006,0.0021,0.0066,0.011,0.0153,0.0179,0.0216,0.0251,0.0297,0.0276,0.0275,0.0275,0.0283,0.0379,0.0389,0.0285,0.0285,0.0285,0,0,-0.0224,-0.0199,-0.0191,-0.0149,-0.0121,-0.0097,-0.0064,-0.0046,-0.0014,0.0027,0.0071,0.0107,0.016,0.0203,0.0224,0.0229,0.0324,0.0276,0.0275,0.0284,0.0381,0.0391,0.0401,0.0285,0.0285,0.0285,0,0,-0.0259,-0.0234,-0.0235,-0.0206,-0.0165,-0.0128,-0.0123,-0.0069,-0.0035,0.0008,0.005,0.0096,0.0157,0.0208,0.0239,0.0257,0.0315,0.0269,0.0276,0.0369,0.0379,0.0388,0.0439,0.0453,0.0274,0.0274,0.0274,0,-0.0282,-0.0267,-0.0232,-0.0224,-0.0198,-0.0143,-0.0127,-0.0087,-0.0023,0.0011,0.0018,0.0129,0.0166,0.024,0.0246,0.0259,0.0308,0.0273,0.037,0.038,0.039,0.044,0.0456,0.0273,0.0273,0.0273,0.0273,0,-0.0306,-0.0292,-0.0297,-0.0256,-0.0225,-0.0211,-0.0142,-0.0101,-0.0054,-0.0006,0.0072,0.0128,0.0198,0.0219,0.0238,0.0328,0.0336,0.0355,0.0372,0.04,0.045,0.0467,0.0272,0.0272,0.0272,0.0273,0,0,-0.0357,-0.032,-0.0319,-0.03,-0.024,-0.0217,-0.0158,-0.0084,-0.0041,0.0026,0.0097,0.0168,0.0201,0.0239,0.028,0.0358,0.0455,0.0383,0.0388,0.0434,0.0641,0.0545,0.0554,0.05,0.0503,0.0506,0.064,0,-0.0381,-0.0379,-0.0341,-0.0317,-0.0302,-0.0226,-0.0173,-0.01,-0.003,0.0047,0.0129,0.0199,0.021,0.025,0.0327,0.0437,0.0502,0.0415,0.0607,0.0612,0.0525,0.0572,0.0463,0.0565,0.0656,0.0659,0.0661,0,-0.041,-0.0399,-0.0389,-0.033,-0.0316,-0.0292,-0.019,-0.0131,-0.0012,0.0047,0.0133,0.0197,0.0319,0.0321,0.0521,0.0469,0.0545,0.062,0.0628,0.0561,0.0548,0.0558,0.0593,0.069,0.0688,0.0686,0.0684,0,-0.0459,-0.0428,-0.042,-0.0403,-0.0331,-0.0302,-0.0251,-0.0142,-0.0064,0.0054,0.013,0.0248,0.0354,0.0469,0.0594,0.0583,0.0803,0.0812,0.079,0.0783,0.0738,0.0721,0.0943,0.0943,0.0943,0.0942,0.0942,0,-0.0497,-0.0489,-0.0451,-0.0448,-0.0414,-0.035,-0.0285,-0.0211,-0.0083,0.0018,0.0122,0.0226,0.0407,0.054,0.0621,0.0748,0.0828,0.0801,0.0823,0.0721,0.0701,0.0849,0.0836,0.0947,0.0946,0.0945,0.0944,0,-0.0548,-0.0526,-0.0511,-0.046,-0.044,-0.0415,-0.03,-0.0225,-0.0117,0.0029,0.008,0.0269,0.0436,0.0568,0.0773,0.0799,0.0911,0.0922,0.0759,0.0756,0.0823,0.0808,0.0945,0.0943,0.0941,0.094,0.0938,0,-0.0573,-0.0575,-0.0534,-0.0502,-0.0482,-0.0427,-0.0355,-0.0249,-0.0152,0.005,0.0134,0.0316,0.0405,0.0628,0.073,0.0838,0.0889,0.0796,0.0747,0.0822,0.083,0.0817,0.0805,0.0685,0.0681,0.0679,0.0677,0,-0.0597,-0.0586,-0.0566,-0.0518,-0.0463,-0.0381,-0.0289,-0.0249,-0.0088,-0.0054,0.0022,0.008,0.0347,0.0422,0.0603,0.0655,0.0763,0.0743,0.0926,0.0668,0.0579,0.0585,0.0582,0.0654,0.0656,0.0658,0.0659,0.066,-0.0597,-0.0585,-0.0547,-0.0493,-0.0432,-0.0345,-0.034,-0.0272,-0.0252,-0.019,-0.0096,-0.0048,0.015,0.0324,0.0457,0.0593,0.0624,0.0622,0.0631,0.0642,0.0555,0.0465,0.0501,0.0502,0.0503,0.0504,0.0505,0,-0.0555,-0.0524,-0.0496,-0.0438,-0.04,-0.0341,-0.0278,-0.0311,-0.0403,-0.0319,-0.0341,-0.0226,-0.0084,0.0164,0.0326,0.0427,0.0457,0.0451,0.0462,0.048,0.0497,0.0406,0.0312,0.0313,0.0313,0.0314,0,0,-0.0519,-0.0469,-0.0456,-0.0398,-0.0375,-0.034,-0.0344,-0.0487,-0.0493,-0.0537,-0.0514,-0.0371,-0.0112,-0.0036,0.0119,0.0221,0.0327,0.0226,0.035,0.0357,0.0374,0.0545,0.0416,0,0,0,0,0]}],[{"header":{"parameterUnit":"m.s-1","parameterCategory":2,"la1":30.2991,"la2":30.254,"lo1":-89.0895,"lo2":-89.0444,"dy":0.0017,"dx":0.0017,"nx":28,"ny":28,"refTime":"2024-06-16T09:00:00:Z","depth":"4","parameterNumber":2,"parameterNumberName":"U-component_of_CURRENTS"},"data":[0,0,0,0,0,0,0,0,0,0,0,0,0,0,0,0,0,0,0,0,0,0,0,0,0,0,0,0,0,0,0,0,0,0,0,0,0,0,0,0,0,0,0,0,0,0,0,0,0,0,0,0,0,0,0,0,0,0,-0.0918,-0.0919,0,-0.0951,-0.095,-0.0949,-0.0955,-0.0956,-0.0958,-0.0959,-0.1054,-0.1056,-0.1057,0,0,0,0,0,0,0,0,0,0,0,0,0,-0.084,-0.084,-0.0917,-0.0919,-0.0921,-0.0951,-0.095,-0.0949,-0.0955,-0.0956,-0.0958,-0.0959,-0.1054,-0.1056,-0.1058,0,0,0,0,0,0,0,0,0,0,0,0,0,-0.0859,-0.084,-0.0917,-0.0939,-0.0943,-0.0951,-0.095,-0.0949,-0.0955,-0.0956,-0.0958,-0.096,-0.1053,-0.1056,-0.1058,-0.1037,0,0,-0.1065,-0.1066,0,0,0,0,0,0,0,0,-0.0857,-0.0859,-0.0934,-0.0938,-0.0942,-0.0964,-0.0959,-0.0987,-0.0954,-0.0934,-0.0959,-0.0961,-0.1039,-0.1042,-0.1022,-0.1042,-0.1046,-0.1065,-0.1066,-0.1067,-0.1068,0,0,0,0,0,0,0,-0.0856,-0.0858,-0.0915,-0.0936,-0.0941,-0.0942,-0.0945,-0.0962,-0.0965,-0.0936,-0.094,-0.0968,-0.104,-0.102,-0.1025,-0.1047,-0.1065,-0.1067,-0.1068,-0.1069,-0.1168,-0.1169,0,0,0,0,0,0,-0.0882,-0.0857,-0.0914,-0.0918,-0.0921,-0.0943,-0.0946,-0.0943,-0.0964,-0.0973,-0.0966,-0.0968,-0.1015,-0.1022,-0.1029,-0.114,-0.1067,-0.1069,-0.107,-0.1167,-0.1168,-0.117,0,0,0,0,0,0,-0.088,-0.0886,-0.0913,-0.0902,-0.0908,-0.0945,-0.094,-0.0943,-0.0954,-0.099,-0.0997,-0.0981,-0.1017,-0.1025,-0.1115,-0.114,-0.107,-0.1072,-0.1165,-0.1167,-0.1169,-0.1279,0,0,0,0,0,0,-0.0876,-0.0883,-0.087,-0.0903,-0.091,-0.0941,-0.094,-0.0943,-0.0974,-0.0977,-0.1004,-0.1012,-0.1019,-0.1112,-0.1117,-0.1141,-0.1074,-0.1164,-0.1166,-0.1168,-0.1274,-0.1284,-0.1293,0,0,0,0,0,-0.0873,-0.0875,-0.0868,-0.0876,-0.0896,-0.0943,-0.0945,-0.0967,-0.0974,-0.0979,-0.1037,-0.1013,-0.1129,-0.1117,-0.1122,-0.1147,-0.1162,-0.1165,-0.1168,-0.1269,-0.1282,-0.1293,0,0,0,0,0,0,-0.0844,-0.0877,-0.0872,-0.0883,-0.0918,-0.0951,-0.0963,-0.0979,-0.1016,-0.1048,-0.1054,-0.1068,-0.1148,-0.1132,-0.1117,-0.1178,-0.113,-0.1134,-0.1205,-0.1217,-0.1227,-0.1175,-0.1076,0,0,0,0,0,-0.0829,-0.0835,-0.0873,-0.0886,-0.09,-0.0927,-0.0945,-0.0985,-0.1037,-0.1052,-0.108,-0.1115,-0.1152,-0.1179,-0.1207,-0.1251,-0.1192,-0.126,-0.127,-0.1279,-0.1239,-0.1236,-0.1242,-0.1179,-0.1179,-0.1179,0,0,-0.0824,-0.0849,-0.0849,-0.088,-0.0899,-0.0922,-0.0939,-0.1007,-0.1031,-0.1062,-0.1108,-0.1163,-0.1175,-0.1239,-0.1267,-0.1237,-0.1261,-0.1283,-0.1291,-0.1244,-0.124,-0.1245,-0.1251,-0.1181,-0.1181,-0.1181,0,0,-0.0833,-0.0836,-0.0837,-0.0867,-0.0935,-0.0956,-0.0983,-0.1043,-0.1065,-0.1145,-0.117,-0.1249,-0.1292,-0.1311,-0.1321,-0.1393,-0.1322,-0.14,-0.1406,-0.1407,-0.1411,-0.1415,-0.1326,-0.1321,-0.1397,-0.1397,-0.1398,0,-0.0825,-0.0827,-0.085,-0.0872,-0.0902,-0.0969,-0.0994,-0.1019,-0.1113,-0.1133,-0.1181,-0.1268,-0.1312,-0.1348,-0.1393,-0.1413,-0.1373,-0.1371,-0.142,-0.1422,-0.1423,-0.1332,-0.1325,-0.1403,-0.1402,-0.1402,-0.1401,0,-0.0835,-0.0837,-0.0856,-0.0881,-0.0912,-0.0971,-0.1022,-0.1068,-0.1128,-0.1159,-0.1244,-0.1326,-0.1375,-0.1405,-0.1433,-0.1462,-0.1415,-0.1444,-0.139,-0.1436,-0.1337,-0.1327,-0.1411,-0.1409,-0.1407,-0.1406,0,0,-0.0811,-0.0848,-0.0853,-0.0862,-0.0936,-0.0974,-0.1013,-0.1055,-0.1094,-0.1184,-0.1205,-0.1319,-0.1385,-0.1398,-0.1452,-0.1455,-0.1464,-0.1464,-0.1461,-0.1372,-0.1401,-0.1342,-0.1324,-0.1523,-0.1523,-0.1522,-0.1319,0,-0.0807,-0.0833,-0.0859,-0.0893,-0.0904,-0.0971,-0.0997,-0.106,-0.1128,-0.1171,-0.1235,-0.1318,-0.1371,-0.1457,-0.1464,-0.1489,-0.1447,-0.1511,-0.1367,-0.136,-0.1303,-0.1315,-0.1521,-0.1311,-0.1308,-0.1307,-0.1306,0,-0.0791,-0.0813,-0.0838,-0.0889,-0.0903,-0.0944,-0.1016,-0.1069,-0.1128,-0.119,-0.1262,-0.1323,-0.1374,-0.1423,-0.1409,-0.1457,-0.1419,-0.14,-0.1393,-0.1282,-0.1285,-0.1259,-0.1287,-0.1288,-0.129,-0.1291,-0.1292,0,-0.075,-0.0794,-0.0815,-0.0838,-0.0907,-0.0941,-0.0999,-0.1077,-0.1083,-0.1224,-0.1228,-0.1328,-0.1369,-0.1369,-0.1351,-0.141,-0.1257,-0.1342,-0.1201,-0.1192,-0.1256,-0.1255,-0.1259,-0.1259,-0.126,-0.1261,-0.1261,0,-0.0724,-0.0741,-0.0806,-0.0824,-0.0859,-0.0941,-0.0967,-0.1074,-0.1114,-0.1085,-0.1251,-0.1204,-0.1367,-0.1299,-0.1296,-0.1189,-0.1216,-0.1162,-0.1145,-0.1303,-0.131,-0.1247,-0.1248,-0.1253,-0.1254,-0.1256,-0.1257,0,-0.0666,-0.071,-0.0732,-0.081,-0.0836,-0.0877,-0.0895,-0.0885,-0.1007,-0.0962,-0.1002,-0.1092,-0.1093,-0.1123,-0.1113,-0.11,-0.1031,-0.0955,-0.1027,-0.1022,-0.097,-0.0979,-0.0832,-0.0829,-0.0826,-0.0823,-0.0821,0,-0.0638,-0.0643,-0.0704,-0.0693,-0.0729,-0.0757,-0.0732,-0.0833,-0.0799,-0.0826,-0.0765,-0.0807,-0.0851,-0.073,-0.0846,-0.0827,-0.0826,-0.0779,-0.0973,-0.0932,-0.093,-0.0945,-0.0958,-0.0816,-0.0816,-0.0815,-0.0814,0,-0.0563,-0.0591,-0.0597,-0.0587,-0.0568,-0.0533,-0.0531,-0.0476,-0.0551,-0.0588,-0.054,-0.0581,-0.0544,-0.0648,-0.0639,-0.0616,-0.0852,-0.0749,-0.0759,-0.0941,-0.0911,-0.0915,-0.0932,-0.0804,-0.0805,-0.0806,-0.0807,0,-0.0485,-0.0458,-0.0457,-0.0448,-0.0419,-0.0373,-0.0372,-0.0308,-0.0298,-0.0363,-0.0296,-0.0364,-0.045,-0.0516,-0.0464,-0.0516,-0.0578,-0.0618,-0.0636,-0.0649,-0.0713,-0.0655,-0.042,0,0,0,0,0,-0.0374,-0.0321,-0.0305,-0.0292,-0.0271,-0.028,-0.0248,-0.024,-0.025,-0.0185,-0.027,-0.0241,-0.0311,-0.0344,-0.0381,-0.0445,-0.0598,-0.0489,-0.0656,-0.0745,-0.0758,-0.0867,0,0,0,0,0,0,-0.0283,-0.0237,-0.0256,-0.0182,-0.0157,-0.0123,-0.0114,-0.013,-0.0114,-0.0146,-0.0174,-0.023,-0.0295,-0.0282,-0.0371,-0.0392,-0.0498,-0.054,-0.054,-0.0739,-0.075,-0.0759,-0.0876,0,0,0,0,0]},{"header":{"parameterUnit":"m.s-1","parameterCategory":2,"la1":30.2991,"la2":30.254,"lo1":-89.0895,"lo2":-89.0444,"dy":0.0017,"dx":0.0017,"nx":28,"ny":28,"refTime":"2024-06-16T09:00:00:Z","depth":"4","parameterNumber":3,"parameterNumberName":"V-component_of_CURRENTS"},"data":[0,0,0,0,0,0,0,0,0,0,0,0,0,0,0,0,0,0,0,0,0,0,0,0,0,0,0,0,0,0,0,0,0,0,0,0,0,0,0,0,0,0,0,0,0,0,0,0,0,0,0,0,0,0,0,0,0,0,-0.0409,-0.0408,0,-0.0413,-0.0414,-0.0415,-0.0464,-0.0465,-0.0465,-0.0466,-0.0466,-0.0465,-0.0465,0,0,0,0,0,0,0,0,0,0,0,0,0,-0.041,-0.0411,-0.0409,-0.0408,-0.0408,-0.0413,-0.0414,-0.0415,-0.0464,-0.0465,-0.0465,-0.0466,-0.0466,-0.0465,-0.0465,0,0,0,0,0,0,0,0,0,0,0,0,0,-0.042,-0.0411,-0.0409,-0.0427,-0.0428,-0.0413,-0.0414,-0.0415,-0.0464,-0.0465,-0.0466,-0.0466,-0.0466,-0.0465,-0.0465,-0.0446,0,0,-0.0463,-0.0462,0,0,0,0,0,0,0,0,-0.0419,-0.0421,-0.0425,-0.0425,-0.0426,-0.0432,-0.0414,-0.0422,-0.0464,-0.0459,-0.0466,-0.0467,-0.0448,-0.0449,-0.046,-0.0446,-0.0446,-0.0462,-0.0462,-0.0462,-0.0462,0,0,0,0,0,0,0,-0.0418,-0.042,-0.0419,-0.0424,-0.0425,-0.0422,-0.0426,-0.0416,-0.0456,-0.046,-0.0461,-0.0448,-0.045,-0.046,-0.046,-0.0446,-0.0462,-0.0462,-0.0461,-0.0461,-0.0457,-0.0457,0,0,0,0,0,0,-0.0402,-0.042,-0.0419,-0.0419,-0.0415,-0.0421,-0.0425,-0.0436,-0.0456,-0.0457,-0.0447,-0.045,-0.0461,-0.0461,-0.046,-0.0467,-0.0462,-0.0461,-0.0461,-0.0457,-0.0457,-0.0457,0,0,0,0,0,0,-0.0403,-0.0403,-0.0419,-0.0411,-0.0412,-0.042,-0.0432,-0.0436,-0.045,-0.0445,-0.0449,-0.0457,-0.0462,-0.0461,-0.0456,-0.0466,-0.0461,-0.046,-0.0456,-0.0457,-0.0457,-0.0463,0,0,0,0,0,0,-0.0403,-0.0404,-0.0414,-0.0411,-0.0411,-0.0422,-0.043,-0.0435,-0.0436,-0.0441,-0.0454,-0.0455,-0.0462,-0.0457,-0.0456,-0.0465,-0.046,-0.0456,-0.0456,-0.0457,-0.0462,-0.0463,-0.0464,0,0,0,0,0,-0.0404,-0.0419,-0.0415,-0.0414,-0.0423,-0.0421,-0.0423,-0.0435,-0.0436,-0.0451,-0.0451,-0.0455,-0.046,-0.0456,-0.0454,-0.0464,-0.0456,-0.0456,-0.0457,-0.0462,-0.0463,-0.0464,0,0,0,0,0,0,-0.0427,-0.0424,-0.042,-0.0434,-0.0428,-0.0427,-0.0436,-0.0432,-0.0445,-0.0446,-0.0448,-0.0449,-0.0452,-0.0453,-0.0448,-0.0466,-0.0462,-0.0462,-0.0467,-0.0468,-0.0469,-0.0519,-0.0459,0,0,0,0,0,-0.043,-0.0441,-0.0431,-0.0438,-0.0439,-0.0434,-0.0434,-0.0435,-0.0435,-0.0443,-0.0455,-0.0458,-0.0453,-0.0455,-0.0458,-0.0457,-0.047,-0.0466,-0.0467,-0.0468,-0.0508,-0.0491,-0.0494,-0.0459,-0.0459,-0.0459,0,0,-0.0437,-0.0434,-0.044,-0.0442,-0.0442,-0.0453,-0.044,-0.0439,-0.0462,-0.0437,-0.0481,-0.046,-0.0452,-0.0461,-0.0463,-0.0463,-0.0487,-0.0469,-0.0469,-0.051,-0.0492,-0.0496,-0.0499,-0.046,-0.046,-0.046,0,0,-0.0456,-0.0457,-0.0477,-0.0478,-0.0467,-0.0461,-0.0458,-0.0463,-0.0488,-0.0502,-0.0488,-0.0485,-0.0487,-0.0493,-0.0489,-0.0498,-0.049,-0.0479,-0.0527,-0.0508,-0.0511,-0.0514,-0.0547,-0.0552,-0.0482,-0.0482,-0.0482,0,-0.0464,-0.0491,-0.0479,-0.0499,-0.0502,-0.0467,-0.0488,-0.0503,-0.0509,-0.0529,-0.0526,-0.0529,-0.052,-0.0522,-0.0528,-0.0506,-0.0495,-0.0517,-0.051,-0.0513,-0.0516,-0.0548,-0.0554,-0.0482,-0.0482,-0.0482,-0.0482,0,-0.0499,-0.0525,-0.0534,-0.0551,-0.0552,-0.0558,-0.0561,-0.0578,-0.0584,-0.0597,-0.0616,-0.0601,-0.0598,-0.0588,-0.0563,-0.0567,-0.0553,-0.0507,-0.0507,-0.052,-0.0553,-0.0559,-0.0483,-0.0483,-0.0483,-0.0482,0,0,-0.051,-0.0554,-0.0559,-0.0584,-0.058,-0.0586,-0.0617,-0.064,-0.0663,-0.0681,-0.072,-0.0712,-0.068,-0.0675,-0.0627,-0.0629,-0.0637,-0.0574,-0.0573,-0.061,-0.0617,-0.0468,-0.0461,-0.0556,-0.0557,-0.0557,-0.0636,0,-0.0543,-0.0596,-0.0608,-0.0653,-0.0677,-0.0669,-0.0697,-0.071,-0.0725,-0.0756,-0.0751,-0.0749,-0.0714,-0.0681,-0.0679,-0.0634,-0.0651,-0.0623,-0.0599,-0.0601,-0.0467,-0.0462,-0.056,-0.0641,-0.0642,-0.0643,-0.0644,0,-0.0578,-0.0608,-0.0668,-0.0711,-0.0721,-0.0741,-0.0768,-0.0794,-0.0816,-0.0824,-0.0822,-0.0789,-0.0787,-0.0744,-0.0731,-0.0695,-0.0674,-0.0663,-0.0663,-0.0535,-0.0462,-0.0623,-0.0656,-0.0655,-0.0654,-0.0653,-0.0653,0,-0.0587,-0.0652,-0.0701,-0.0717,-0.0755,-0.0789,-0.0801,-0.082,-0.0855,-0.0854,-0.0873,-0.0836,-0.085,-0.0789,-0.0722,-0.0717,-0.0712,-0.0697,-0.0575,-0.0567,-0.0679,-0.0675,-0.0719,-0.0719,-0.0719,-0.0719,-0.0718,0,-0.0615,-0.0661,-0.0717,-0.0746,-0.0803,-0.0814,-0.0871,-0.0877,-0.0899,-0.0916,-0.0899,-0.0885,-0.0858,-0.0823,-0.0745,-0.0655,-0.0717,-0.0605,-0.0566,-0.0681,-0.0676,-0.0684,-0.0679,-0.0722,-0.0721,-0.072,-0.072,0,-0.0628,-0.0667,-0.0731,-0.0789,-0.0817,-0.0855,-0.0922,-0.0938,-0.0965,-0.0989,-0.0978,-0.097,-0.0892,-0.0845,-0.0777,-0.0708,-0.0606,-0.0563,-0.0718,-0.0684,-0.0499,-0.0494,-0.0489,-0.0484,-0.048,-0.0476,-0.0473,0,-0.0643,-0.0677,-0.0762,-0.08,-0.0839,-0.0905,-0.0926,-0.0959,-0.0962,-0.0993,-0.0979,-0.0962,-0.0916,-0.0763,-0.0677,-0.0543,-0.0511,-0.0502,-0.0501,-0.0508,-0.0471,-0.0472,-0.0472,-0.0467,-0.0466,-0.0465,-0.0464,0,-0.0667,-0.0698,-0.0741,-0.0805,-0.0854,-0.0907,-0.094,-0.0949,-0.0952,-0.1015,-0.0942,-0.0859,-0.0812,-0.0694,-0.0596,-0.0479,-0.0514,-0.046,-0.047,-0.0469,-0.0481,-0.0449,-0.0454,-0.0449,-0.0451,-0.0453,-0.0454,0,-0.0679,-0.0701,-0.0741,-0.0795,-0.0848,-0.0854,-0.0897,-0.0877,-0.0893,-0.0913,-0.0867,-0.0811,-0.0818,-0.0657,-0.0514,-0.0414,-0.042,-0.0408,-0.0421,-0.0436,-0.0355,-0.0358,-0.0268,0,0,0,0,0,-0.0674,-0.068,-0.0724,-0.0761,-0.0798,-0.0829,-0.0862,-0.0884,-0.0907,-0.0839,-0.0855,-0.0752,-0.0601,-0.055,-0.0428,-0.0445,-0.04,-0.0296,-0.0392,-0.037,-0.0387,-0.028,0,0,0,0,0,0,-0.0675,-0.0703,-0.0703,-0.0702,-0.0719,-0.0746,-0.0764,-0.0786,-0.0746,-0.0776,-0.0697,-0.0706,-0.0563,-0.0672,-0.0424,-0.0398,-0.0434,-0.0253,-0.0249,-0.0361,-0.0376,-0.0389,-0.0285,0,0,0,0,0]}]]